Zurück zum Katalog

NOAA 16 DEB

AktivSSO
NORAD 41513·DEBRIS·🇺🇸 United States

Gestartet Sep 21, 2000 von Vandenberg Space Force Base

Loading…

Nächste Überflüge (nächste 24 Stunden)

TLE

AktuellSource: Space-Track

Epoche: Sep 14, 2026, 10:55 UTC

1 41513U 00055MM  26257.45508689  .00002581  00000-0  12408-2 0  9994
2 41513  98.7423 257.1512 0053484  30.1040 330.3192 14.18945144537539

Verfolge NOAA 16 DEB in Echtzeit mit AllMySat

Download on the App Store